Weather History for KTAN - March, 2013

Change the Weather History Date:

Wednesday, March 20, 2013

  Actual Average Record
Temperature  
Mean Temperature 34 °F -  
Max Temperature 43 °F 49 °F 75 °F (2012)
Min Temperature 25 °F 27 °F -5 °F (1949)
Degree Days  
Heating Degree Days 31    
Moisture  
Dew Point 19 °F    
Average Humidity 59    
Maximum Humidity 78    
Minimum Humidity 35    
Precipitation  
Precipitation 0.00 in - - ()
Sea Level Pressure  
Sea Level Pressure 29.75 in    
Wind  
Wind Speed 9 mph (WNW)    
Max Wind Speed 17 mph    
Max Gust Speed 29 mph    
Visibility 10 miles    
Events      
Averages and records for this station are not official NWS values.
T = Trace of Precipitation, MM = Missing Value Source: NWS Daily Summary

Daily Weather History Graph

Daily Weather History Graph

Search for Another Location

Airport or City:

Trip Planner

Search our weather history database for the weather conditions in past years. The results will help you decide how hot, cold, wet, or windy it might be!

Date:

Astronomy

Mar. 20, 2013 Rise Set
Actual Time 6:47 AM EDT 6:56 PM EDT
Civil Twilight 6:19 AM EDT 7:24 PM EDT
Nautical Twilight 5:46 AM EDT 7:56 PM EDT
Astronomical Twilight 5:13 AM EDT 8:30 PM EDT
Moon 12:24 PM EDT (3/20) 2:29 AM EDT (3/20)
Length of Visible Light 13h 05m
Length of Day
12h 09m
First Quarter, 59% of the Moon is Illuminated
Mar 20
First Quarter
Mar 27
Full
Apr 3
Last Quarter
Apr 10
New
Apr 18
First Quarter

Hourly Weather History & Observations

Time (EDT) Temp. Windchill Dew Point Humidity Pressure Visibility Wind Dir Wind Speed Gust Speed Precip Events Conditions
12:52 AM 32.0 °F 24.8 °F 25.0 °F 75% 29.68 in 10.0 mi NNW 8.1 mph - N/A   Mostly Cloudy
1:10 AM 32.0 °F 24.8 °F 25.0 °F 75% 29.69 in 10.0 mi NW 8.1 mph - N/A   Mostly Cloudy
1:23 AM 32.0 °F 24.2 °F 25.0 °F 75% 29.69 in 10.0 mi NW 9.2 mph - N/A   Overcast
1:52 AM 30.9 °F 23.5 °F 24.1 °F 76% 29.71 in 10.0 mi WNW 8.1 mph 17.3 mph N/A   Mostly Cloudy
2:01 AM 30.0 °F 23.2 °F 23.0 °F 75% 29.71 in 10.0 mi NW 6.9 mph - N/A   Mostly Cloudy
2:52 AM 30.0 °F 24.1 °F 21.9 °F 72% 29.73 in 10.0 mi WNW 5.8 mph - N/A   Mostly Cloudy
3:52 AM 30.0 °F 24.1 °F 21.9 °F 72% 29.73 in 10.0 mi WSW 5.8 mph - N/A   Overcast
4:52 AM 30.0 °F 22.4 °F 21.9 °F 72% 29.74 in 10.0 mi West 8.1 mph - N/A   Clear
5:52 AM 30.0 °F 21.1 °F 17.1 °F 59% 29.75 in 10.0 mi West 10.4 mph 19.6 mph N/A   Clear
6:52 AM 30.0 °F 22.4 °F 17.1 °F 59% 29.76 in 10.0 mi West 8.1 mph - N/A   Clear
7:52 AM 30.9 °F 21.2 °F 18.0 °F 59% 29.77 in 10.0 mi West 12.7 mph 24.2 mph N/A   Clear
8:52 AM 33.1 °F 23.4 °F 18.0 °F 54% 29.76 in 10.0 mi West 13.8 mph 24.2 mph N/A   Clear
9:52 AM 34.0 °F 24.6 °F 18.0 °F 52% 29.77 in 10.0 mi WNW 13.8 mph 28.8 mph N/A   Partly Cloudy
10:52 AM - - - N/A% 29.77 in - West 13.8 mph 25.3 mph N/A   Partly Cloudy
11:52 AM 37.0 °F - 17.1 °F 44% 29.76 in 10.0 mi North - - N/A   Unknown
12:52 PM 39.0 °F 30.6 °F 17.1 °F 41% 29.77 in 10.0 mi West 15.0 mph 23.0 mph N/A   Clear
1:52 PM 39.9 °F 31.1 °F 15.1 °F 36% 29.75 in 10.0 mi West 17.3 mph 27.6 mph N/A   Clear
2:52 PM 42.1 °F 34.2 °F 16.0 °F 35% 29.74 in 10.0 mi West 16.1 mph 23.0 mph N/A   Partly Cloudy
3:52 PM 41.0 °F 33.1 °F 16.0 °F 36% 29.74 in 10.0 mi West 15.0 mph 23.0 mph N/A   Clear
4:52 PM 39.9 °F 32.5 °F 15.1 °F 36% 29.75 in 10.0 mi WNW 12.7 mph 21.9 mph N/A   Partly Cloudy
5:52 PM 39.0 °F 33.4 °F 16.0 °F 39% 29.77 in 10.0 mi WNW 8.1 mph - N/A   Mostly Cloudy
6:52 PM 39.9 °F 33.9 °F 15.1 °F 36% 29.79 in 10.0 mi West 9.2 mph 18.4 mph N/A   Overcast
7:52 PM 34.0 °F - 16.0 °F 48% 29.80 in 10.0 mi Calm Calm - N/A   Clear
8:52 PM 30.0 °F - 21.0 °F 69% 29.81 in 10.0 mi Calm Calm - N/A   Clear
9:52 PM 28.0 °F 24.2 °F 21.0 °F 75% 29.82 in 10.0 mi South 3.5 mph - N/A   Clear
10:52 PM 26.1 °F - 19.9 °F 78% 29.81 in 10.0 mi Calm Calm - N/A   Clear
11:52 PM 25.0 °F - 19.0 °F 78% 29.81 in 10.0 mi Calm Calm - N/A   Clear